星链-5897 (STARLINK-5897 )

导读

STARLINK-5897是美国SpaceX公司星链星座的卫星,于2023年3月17日发射入轨,属于星链第二代低轨互联网星座的部署卫星。星链项目旨在构建全球覆盖的卫星互联网系统,为偏远地区、航空海运等场景提供高速网络服务,同时兼具军事应用潜力。该卫星服役于近地轨道,单颗设计寿命超5年,助力星链完成全球组网布局,不过大规模卫星部署也引发太空安全等争议。

基本信息
目录编号:
55931
目录名称:
STARLINK-5897
国际标识:
2023-037T
轨道中心:
EARTH
卫星名称:
星链-5897
卫星全名:
星链-5897 (STARLINK-5897 )
卫星状态:
在轨 (已飞行1275 天)
发射日期:
2023-03-17 UTC
国别 :
美国 (US)
星等 :
--
该卫星已列入 空间交会检测服务 Space Conjunction Data Service (SCDS) ,当前飞行风险评估等级: 无高风险
轨道信息
数据来源 国际轨道数据
星历时间: 2026-09-12T13:32:38+0800
10小时前
查看轨道信息
半长轴: 6950.196km
偏心率: 0.0002948
轨道倾角: 70.001°
近地点辐角 266.028°
升交点赤经 193.941°
平近点角 94.054°
近地点: 570.01km
远地点: 574.108km
周期: 96.107分钟
每日圈数: 14.983293
详细信息
固有亮度:
5
最大亮度:
2.5
卫星平台:
Starlink v1.5
覆盖范围:
全球
运营商:
太空探索技术公司
运营商所在国:
美国
制造商(研发单位):
太空探索技术公司
制造商所在国:
美国
使用方式:
暂无
卫星简介
星链(Starlink)计划是由太空探索技术公司(SpaceX)提出的一个巨型低轨卫星互联网星座项目,计划在2019年至2024年间在太空搭建由约1.2万颗卫星组成的“星链”网络,其中1584颗将部署在地球上空550千米处的近地轨道,并从2020年开始工作。该卫星仍在工作。
2D轨道图
3D轨道图
轨道高度分析图
轨道倾角分析图
轨道综合分析图
查看轨道综合分析图
交会数据列表
事件ID 空间交会对象 最接近时刻(TCA) 交会距离 交会风险概率(CRP) 交会风险指数(CRI) 操作
CDM_260913-173605-593106-458622
2026-09-13T
17:36:56+0000
2.269 km
极远距离
2.147776E-6 低风险 0.42
CDM_260914-163805-194905-593121
OBJECT D (51949)
2026-09-14T
16:38:31+0000
2.755 km
极远距离
1.392428E-6 低风险 0.38
CDM_260914-025605-593106-325922
2026-09-14T
02:56:34+0000
2.216 km
极远距离
1.329034E-6 低风险 0.37
与全量物体交会距离演化趋势
与全量物体交会风险概率演化趋势